1998-067LJ

Last updated on Thu May 25 2017 00:15:03 GMT+0000 (Coordinated Universal Time)

1 42701U 98067LJ 17144.44953612 .00011076 00000-0 16843-3 0 9995 2 42701 51.6426 156.5744 0005429 237.7058 235.7049 15.55072899 1231
UTC large
Height (km)
Speed (km/s)
/
Latitude / Longitude
Inclination (degrees)
Orbital Period (minutes)
Azimuth
Elevation
Range (km)
Doppler Factor

Next 0 passes for location: London (51.5072 / 0.1276)

Sorry there are no passes over London.